Location: Ehrke Reservoir
(40.0279°N, 99.6641°W)
Time: 11:53:13
(UTC+00:00)

USA 267 - Pass Details

Date: 20 January 2020
Orbit: 1099 x 1108 km, 123.0° (Epoch: 10 February)

Event Time Altitude Azimuth Distance (km) Brightness Sun altitude
Exits shadow 00:00:39 - 43° (NE) 3,778 5.5 -4.1°
Reaches altitude 10° 00:02:58 10° 35° (NE) 2,963 5.0 -4.5°
Maximum altitude 00:08:40 34° 334° (NNW) 1,745 4.4 -5.5°
Drops below altitude 10° 00:14:23 10° 273° (W) 2,961 6.8 -6.5°
Sets 00:17:06 0° 265° (W) 3,919 8.0 -7.0°
